When you browse on this site, cookies collect data to enhance your experience and personalize the content and advertising you see.
Visit our Privacy Policy to learn more. By continuing to use the site, you agree to this use of cookies and data.
  • In Latvia
  • List of Countries
  • For 7 days
  • Water Temperature
  • Satellite Maps
  • Weather Map
  • Weather Widgets
  • user-avatar
    Login

    Hourly Weather Michurina

    Today, 24 March, Sunday

    Time Temperature Precipitation Wind Pressure Humidity
    00:00 -3°C° 0 mm 2 mps 729 mmHg 88%
    01:00 -3°C° 0 mm 2 mps 728 mmHg 87%
    02:00 -4°C° 0 mm 2 mps 728 mmHg 86%
    03:00 -4°C° 0 mm 2 mps 728 mmHg 85%
    04:00 -4°C° 0 mm 2 mps 729 mmHg 84%
    05:00 -4°C° 0 mm 2 mps 729 mmHg 82%
    06:00 -4°C° 0 mm 2 mps 729 mmHg 81%
    07:00 -2°C° 0 mm 2 mps 729 mmHg 77%
    08:00 +1°C° 0 mm 2 mps 729 mmHg 72%
    09:00 +1°C° 0 mm 3 mps 729 mmHg 68%
    10:00 +2°C° 0.1 mm 3 mps 729 mmHg 70%
    11:00 +3°C° 0.1 mm 3 mps 729 mmHg 71%
    12:00 +3°C° 0.1 mm 3 mps 729 mmHg 73%
    13:00 +4°C° 0.2 mm 4 mps 729 mmHg 72%
    14:00 +4°C° 0.2 mm 4 mps 729 mmHg 71%
    15:00 +4°C° 0.2 mm 4 mps 729 mmHg 70%
    16:00 +4°C° 0.1 mm 4 mps 730 mmHg 73%
    17:00 +3°C° 0.1 mm 3 mps 730 mmHg 77%
    18:00 +2°C° 0.1 mm 3 mps 730 mmHg 81%
    19:00 +2°C° 0 mm 2 mps 730 mmHg 84%
    20:00 +1°C° 0 mm 2 mps 730 mmHg 88%
    21:00 -2°C° 0 mm 2 mps 731 mmHg 91%
    22:00 0°C° 0 mm 1 mps 731 mmHg 90%
    23:00 0°C° 0 mm 1 mps 731 mmHg 89%

    Tomorrow, 25 March, Monday

    Time Temperature Precipitation Wind Pressure Humidity
    00:00 0°C° 0 mm 1 mps 731 mmHg 88%
    01:00 -1°C° 0 mm 1 mps 731 mmHg 88%
    02:00 -1°C° 0 mm 1 mps 730 mmHg 87%
    03:00 -1°C° 0 mm 1 mps 730 mmHg 86%
    04:00 -1°C° 0 mm 1 mps 730 mmHg 85%
    05:00 -1°C° 0 mm 1 mps 730 mmHg 83%
    06:00 -1°C° 0 mm 1 mps 730 mmHg 81%
    07:00 +1°C° 0 mm 1 mps 730 mmHg 76%
    08:00 +3°C° 0 mm 1 mps 730 mmHg 70%
    09:00 +4°C° 0 mm 0 mps 730 mmHg 64%
    10:00 +6°C° 0 mm 1 mps 730 mmHg 62%
    11:00 +7°C° 0 mm 1 mps 729 mmHg 59%
    12:00 +8°C° 0 mm 1 mps 729 mmHg 57%
    13:00 +9°C° 0 mm 1 mps 729 mmHg 58%
    14:00 +9°C° 0 mm 1 mps 728 mmHg 58%
    15:00 +8°C° 0 mm 2 mps 728 mmHg 59%
    16:00 +8°C° 0 mm 1 mps 728 mmHg 64%
    17:00 +7°C° 0 mm 1 mps 728 mmHg 69%
    18:00 +7°C° 0 mm 1 mps 728 mmHg 75%
    19:00 +5°C° 0 mm 1 mps 728 mmHg 77%
    20:00 +4°C° 0 mm 1 mps 728 mmHg 80%
    21:00 +3°C° 0 mm 1 mps 728 mmHg 82%
    22:00 +3°C° 0 mm 1 mps 728 mmHg 83%
    23:00 +2°C° 0 mm 1 mps 728 mmHg 83%

    Day after tomorrow, 26 March, Tuesday

    Time Temperature Precipitation Wind Pressure Humidity
    00:00 +2°C° 0 mm 1 mps 728 mmHg 84%
    01:00 +2°C° 0 mm 1 mps 728 mmHg 84%
    02:00 +2°C° 0 mm 1 mps 728 mmHg 84%
    03:00 +2°C° 0 mm 1 mps 728 mmHg 84%
    04:00 +2°C° 0 mm 1 mps 728 mmHg 83%
    05:00 +2°C° 0 mm 1 mps 728 mmHg 83%
    06:00 +2°C° 0 mm 1 mps 728 mmHg 82%
    07:00 +4°C° 0 mm 1 mps 728 mmHg 76%
    08:00 +5°C° 0 mm 0 mps 728 mmHg 69%
    09:00 +8°C° 0 mm 0 mps 728 mmHg 63%
    10:00 +9°C° 0 mm 0 mps 728 mmHg 59%
    11:00 +12°C° 0 mm 1 mps 728 mmHg 55%
    12:00 +13°C° 0 mm 1 mps 728 mmHg 52%
    13:00 +14°C° 0 mm 1 mps 728 mmHg 50%
    14:00 +14°C° 0 mm 1 mps 727 mmHg 49%
    15:00 +14°C° 0 mm 1 mps 727 mmHg 48%
    16:00 +13°C° 0 mm 1 mps 727 mmHg 53%
    17:00 +12°C° 0 mm 1 mps 727 mmHg 59%
    18:00 +10°C° 0 mm 1 mps 726 mmHg 64%
    19:00 +9°C° 0 mm 1 mps 727 mmHg 68%
    20:00 +8°C° 0 mm 1 mps 727 mmHg 71%
    21:00 +6°C° 0 mm 1 mps 727 mmHg 74%
    22:00 +6°C° 0 mm 1 mps 727 mmHg 76%
    23:00 +6°C° 0 mm 1 mps 727 mmHg 78%

    27 March, Wednesday

    Time Temperature Precipitation Wind Pressure Humidity
    00:00 +5°C° 0 mm 1 mps 727 mmHg 79%
    01:00 +5°C° 0 mm 1 mps 727 mmHg 80%
    02:00 +5°C° 0 mm 1 mps 727 mmHg 81%
    03:00 +5°C° 0 mm 1 mps 727 mmHg 82%
    04:00 +5°C° 0 mm 1 mps 727 mmHg 82%
    05:00 +5°C° 0 mm 1 mps 727 mmHg 83%
    06:00 +4°C° 0 mm 1 mps 728 mmHg 83%
    07:00 +6°C° 0 mm 1 mps 728 mmHg 78%
    08:00 +8°C° 0 mm 1 mps 729 mmHg 73%
    09:00 +9°C° 0 mm 1 mps 729 mmHg 67%
    10:00 +9°C° 0 mm 2 mps 729 mmHg 65%
    11:00 +10°C° 0 mm 3 mps 729 mmHg 62%
    12:00 +11°C° 0 mm 3 mps 730 mmHg 60%
    13:00 +11°C° 0.1 mm 4 mps 730 mmHg 64%
    14:00 +10°C° 0.1 mm 4 mps 730 mmHg 69%
    15:00 +8°C° 0.1 mm 5 mps 730 mmHg 74%
    16:00 +8°C° 0.3 mm 4 mps 730 mmHg 75%
    17:00 +7°C° 0.3 mm 4 mps 731 mmHg 75%
    18:00 +7°C° 0.3 mm 3 mps 731 mmHg 76%
    19:00 +5°C° 0.1 mm 3 mps 732 mmHg 73%
    20:00 +5°C° 0.1 mm 2 mps 732 mmHg 70%
    21:00 +3°C° 0.1 mm 2 mps 733 mmHg 67%
    22:00 +3°C° 0 mm 2 mps 733 mmHg 70%
    23:00 +3°C° 0 mm 1 mps 734 mmHg 73%

    28 March, Thursday

    Time Temperature Precipitation Wind Pressure Humidity
    00:00 +2°C° 0 mm 1 mps 734 mmHg 76%
    01:00 +1°C° 0 mm 1 mps 734 mmHg 76%
    02:00 0°C° 0 mm 0 mps 734 mmHg 76%
    03:00 -1°C° 0 mm 0 mps 734 mmHg 76%
    04:00 -1°C° 0 mm 0 mps 735 mmHg 75%
    05:00 -1°C° 0 mm 0 mps 735 mmHg 75%
    06:00 -2°C° 0 mm 0 mps 735 mmHg 74%
    07:00 +1°C° 0 mm 1 mps 735 mmHg 65%
    08:00 +3°C° 0 mm 1 mps 736 mmHg 57%
    09:00 +4°C° 0 mm 1 mps 736 mmHg 48%
    10:00 +4°C° 0 mm 2 mps 736 mmHg 44%
    11:00 +5°C° 0 mm 2 mps 736 mmHg 40%
    12:00 +6°C° 0 mm 2 mps 736 mmHg 37%
    13:00 +7°C° 0 mm 2 mps 736 mmHg 37%
    14:00 +7°C° 0 mm 2 mps 735 mmHg 38%
    15:00 +7°C° 0 mm 2 mps 735 mmHg 38%
    16:00 +6°C° 0 mm 2 mps 735 mmHg 43%
    17:00 +5°C° 0 mm 2 mps 735 mmHg 48%
    18:00 +4°C° 0 mm 2 mps 735 mmHg 53%
    19:00 +4°C° 0 mm 1 mps 735 mmHg 57%
    20:00 +3°C° 0 mm 1 mps 736 mmHg 62%
    21:00 +1°C° 0 mm 1 mps 736 mmHg 66%
    22:00 +1°C° 0 mm 1 mps 736 mmHg 67%
    23:00 +1°C° 0 mm 1 mps 736 mmHg 68%

    29 March, Friday

    Time Temperature Precipitation Wind Pressure Humidity
    00:00 0°C° 0 mm 1 mps 736 mmHg 69%
    01:00 0°C° 0 mm 1 mps 736 mmHg 69%
    02:00 0°C° 0 mm 1 mps 735 mmHg 70%
    03:00 0°C° 0 mm 1 mps 735 mmHg 70%
    04:00 0°C° 0 mm 1 mps 735 mmHg 70%
    05:00 0°C° 0 mm 1 mps 735 mmHg 70%
    06:00 0°C° 0 mm 1 mps 735 mmHg 70%
    07:00 +2°C° 0 mm 1 mps 735 mmHg 62%
    08:00 +4°C° 0 mm 1 mps 735 mmHg 55%
    09:00 +6°C° 0 mm 1 mps 736 mmHg 48%
    10:00 +8°C° 0 mm 1 mps 735 mmHg 45%
    11:00 +8°C° 0 mm 2 mps 735 mmHg 42%
    12:00 +9°C° 0 mm 2 mps 735 mmHg 39%
    13:00 +9°C° 0 mm 2 mps 734 mmHg 40%
    14:00 +9°C° 0 mm 2 mps 734 mmHg 40%
    15:00 +9°C° 0 mm 3 mps 734 mmHg 41%
    16:00 +8°C° 0 mm 2 mps 734 mmHg 46%
    17:00 +7°C° 0 mm 2 mps 733 mmHg 51%
    18:00 +7°C° 0 mm 1 mps 733 mmHg 57%
    19:00 +5°C° 0 mm 1 mps 733 mmHg 60%
    20:00 +4°C° 0 mm 1 mps 734 mmHg 63%
    21:00 +2°C° 0 mm 0 mps 734 mmHg 67%
    22:00 +2°C° 0 mm 1 mps 734 mmHg 68%
    23:00 +2°C° 0 mm 1 mps 734 mmHg 69%
    Show more